Regional Weather Roundup
Issued by NWS

Home | Current Version | Previous Version | Graphics & Text | Print | Product List | Glossary On
Versions: 1 2 3 4 5 6 7 8 9 10 11 12 13 14 15 16 17 18 19 20 21 22 23 24 25 26 27 28 29 30 31 32 33 34 35 36 37 38 39 40 41 42 43 44 45 46 47 48 49 50
000
ASUS45 KABQ 221101
RWRNM
WEATHER ROUNDUP FOR NEW MEXICO
NATIONAL WEATHER SERVICE ALBUQUERQUE NM
500 AM MDT TUE JUL 22 2014

NOTE: "FAIR" MEANS FEW OR NO CLOUDS BELOW 12,000 FEET AGL WITH NO
       SIGNIFICANT WEATHER OR OBSTRUCTIONS TO VISION.

      THIS PRODUCT IS RELEASED AS TWO VERSIONS.  ONE VERSION NEAR
      THE TOP OF THE HOUR CONTAINING PRELIMINARY DATA FROM ALBUQUERQUE
      AND OTHER STATIONS.  A FINAL VERSION WITH ADDITIONAL DATA IS
      ISSUED ABOUT 10 MINUTES AFTER THE HOUR.

NMZ501-503-504-510>518-221200-
NORTHWEST PLATEAU/NORTHCENTRAL MOUNTAINS

CITY           SKY/WX    TMP DP  RH WIND       PRES   REMARKS
FARMINGTON     CLEAR     59  27  29 N5        30.25S
SANTA FE       PTCLDY    67  50  54 SE3       30.33S
TAOS           PTCLDY    54  39  58 N7        30.41S

$$
NMZ402-403-502-505>509-221200-
WESTCENTRAL MOUNTAINS/SOUTHWEST MOUNTAINS

CITY           SKY/WX    TMP DP  RH WIND       PRES   REMARKS
GALLUP         PTCLDY    62  41  46 CALM      30.34R

$$
NMZ407-409-411-412-221200-
SOUTHERN DESERTS

CITY           SKY/WX    TMP DP  RH WIND       PRES   REMARKS
DEMING         CLEAR     68  50  52 W5        30.13S
HOLLOMAN AFB   CLEAR     69  52  53 NE8       30.13R
T OR C         PTCLDY    74  49  41 NE6       30.17R

$$
NMZ519>523-221200-
CENTRAL VALLEYS/CENTRAL HIGHLANDS

CITY           SKY/WX    TMP DP  RH WIND       PRES   REMARKS
ALBUQUERQUE    MOCLDY    78  49  35 CALM      30.24R
DOUBLE EAGLE   PTCLDY    69  51  53 CALM      30.29R
CLINES CORNERS PTCLDY    62  52  69 E7        30.39R
BELEN          FAIR      76  50  40 SE5       30.22R
SOCORRO        NOT AVBL

$$
NMZ524>526-539-540-221200-
SOUTHCENTRAL MOUNTAINS

CITY           SKY/WX    TMP DP  RH WIND       PRES   REMARKS
RUIDOSO        NOT AVBL

$$
NMZ527>531-221200-
NORTHEAST HIGHLANDS/NORTHEAST PLAINS

CITY           SKY/WX    TMP DP  RH WIND       PRES   REMARKS
LAS VEGAS      MOCLDY    58  53  84 E7        30.39R
RATON          CLEAR     57  51  80 NE9       30.34R
CLAYTON        CLEAR     67  57  70 W16       30.20F

$$
NMZ532>537-221200-
EASTCENTRAL PLAINS

CITY           SKY/WX    TMP DP  RH WIND       PRES   REMARKS
TUCUMCARI      PTCLDY    70  61  73 W9        30.16R
CANNON AFB     NOT AVBL
CLOVIS AIRPORT NOT AVBL

$$
NMZ028-029-538-221200-
SOUTHEAST PLAINS

CITY           SKY/WX    TMP DP  RH WIND       PRES   REMARKS
ROSWELL        MOCLDY    76  63  64 E10       30.14R
CARLSBAD       PTCLDY    79  65  62 SE6       30.09R


$$



USA.gov is the U.S. government's official web portal to all federal, state and local government web resources and services.